Change the Weather History Date:

Sunday, October 23, 2011

  Actual Average Record
Temperature  
Mean Temperature 70 °F 62 °F  
Max Temperature 90 °F 79 °F 90 °F (2011)
Min Temperature 50 °F 45 °F 28 °F (1957)
Degree Days  
Heating Degree Days 0 4  
Month to date heating degree days 25 41  
Since 1 July heating degree days 25 43  
Cooling Degree Days 5 1  
Month to date cooling degree days 138 57  
Year to date cooling degree days 2216 1808  
Growing Degree Days 20 (Base 50)    
Moisture  
Dew Point 30 °F    
Average Humidity 28    
Maximum Humidity 44    
Minimum Humidity 11    
Precipitation  
Precipitation 0.00 in 0.02 in 0.62 in (1978)
Month to date precipitation 0.15 0.70  
Year to date precipitation 7.08 11.25  
Snow  
Snow 0.00 in - - ()
Month to date snowfall 0.0  
Snow Depth 0.00 in    
Sea Level Pressure  
Sea Level Pressure 29.97 in    
Wind  
Wind Speed 4 mph (NNW)    
Max Wind Speed 10 mph    
Max Gust Speed 14 mph    
Visibility 10 miles    
Events      
T = Trace of Precipitation, MM = Missing Value Source: NWS Daily Summary

Daily Weather History Graph

Daily Weather History Graph

Search for Another Location

Airport or City:

Trip Planner

Search our weather history database for the weather conditions in past years. The results will help you decide how hot, cold, wet, or windy it might be!

Date:

Astronomy

Oct. 23, 2011 Rise Set
Actual Time 6:27 AM MST 5:37 PM MST
Civil Twilight 6:02 AM MST 6:02 PM MST
Nautical Twilight 5:33 AM MST 6:31 PM MST
Astronomical Twilight 5:05 AM MST 6:59 PM MST
Moon 2:50 AM MST (10/23) 3:20 PM MST (10/23)
Length of Visible Light 12h 00m
Length of Day
11h 10m
Waning Crescent, 13% of the Moon is Illuminated
Oct 23
Waning Crescent
Oct 26
New
Nov 2
First Quarter
Nov 10
Full
Nov 18
Last Quarter

Hourly Weather History & Observations

Time (MST) Temp. Dew Point Humidity Pressure Visibility Wind Dir Wind Speed Gust Speed Precip Events Conditions
12:56 AM 59.0 °F 32.0 °F 36% 29.95 in 10.0 mi North 3.5 mph - N/A   Clear
1:56 AM 55.9 °F 30.9 °F 39% 29.95 in 10.0 mi North 6.9 mph - N/A   Clear
2:56 AM 53.6 °F 30.2 °F 41% 30.13 in 10.0 mi NE 4.6 mph - N/A   Clear
3:56 AM 55.9 °F 30.9 °F 39% 29.95 in 10.0 mi NE 4.6 mph - N/A   Clear
4:56 AM 51.1 °F 30.0 °F 44% 29.97 in 10.0 mi Calm Calm - N/A   Clear
5:56 AM 51.1 °F 30.9 °F 46% 29.99 in 10.0 mi SE 3.5 mph - N/A   Clear
6:56 AM 53.1 °F 30.0 °F 41% 30.01 in 10.0 mi ESE 4.6 mph - N/A   Clear
7:56 AM 61.0 °F 33.1 °F 35% 30.02 in 10.0 mi Calm Calm - N/A   Clear
8:56 AM 72.0 °F 34.0 °F 25% 30.01 in 10.0 mi Calm Calm - N/A   Clear
9:56 AM 77.0 °F 36.0 °F 23% 30.00 in 10.0 mi Calm Calm - N/A   Clear
10:56 AM 82.9 °F 35.1 °F 18% 29.98 in 10.0 mi SW 3.5 mph - N/A   Clear
11:56 AM 87.1 °F 34.0 °F 15% 29.96 in 10.0 mi South 5.8 mph - N/A   Clear
12:56 PM 87.1 °F 32.0 °F 14% 29.94 in 10.0 mi South 5.8 mph - N/A   Clear
1:56 PM 88.0 °F 30.9 °F 13% 29.91 in 10.0 mi Variable 4.6 mph - N/A   Clear
2:56 PM 89.1 °F 30.9 °F 12% 29.90 in 10.0 mi Calm Calm - N/A   Clear
3:56 PM 89.1 °F 28.0 °F 11% 29.88 in 10.0 mi SSE 4.6 mph - N/A   Clear
4:56 PM 88.0 °F 28.0 °F 12% 29.90 in 10.0 mi SSW 5.8 mph - N/A   Clear
5:56 PM 79.0 °F 26.1 °F 14% 29.94 in 10.0 mi WNW 5.8 mph - N/A   Clear
6:56 PM 73.0 °F 27.0 °F 18% 29.96 in 10.0 mi North 6.9 mph - N/A   Clear
7:56 PM 73.0 °F 28.0 °F 19% 29.96 in 10.0 mi NE 8.1 mph - N/A   Clear
8:56 PM 68.0 °F 27.0 °F 21% 29.96 in 10.0 mi Calm Calm - N/A   Clear
9:56 PM 64.4 °F 26.6 °F 24% 30.14 in 10.0 mi West 5.8 mph - N/A   Scattered Clouds
10:56 PM 61.0 °F 27.0 °F 27% 29.96 in 10.0 mi WNW 4.6 mph - N/A   Scattered Clouds
11:56 PM 61.0 °F 28.0 °F 29% 29.95 in 10.0 mi NNW 5.8 mph - N/A   Clear